Regional Weather Roundup
Issued by NWS

Home | Current Version | Previous Version | Graphics & Text | Print | Product List | Glossary On
Versions: 1 2 3 4 5 6 7 8 9 10 11 12 13 14 15 16 17 18 19 20 21 22 23 24 25 26 27 28 29 30 31 32 33 34 35 36 37 38 39 40 41 42 43 44 45 46 47 48 49 50
000
ASUS43 KFSD 251202
RWRSD

WEATHER ROUNDUP FOR SOUTH DAKOTA
NATIONAL WEATHER SERVICE SIOUX FALLS SD
700 AM CDT TUE JUL 25 2017

NOTE: "FAIR" INDICATES FEW OR NO CLOUDS BELOW 12,000 FEET WITH NO
SIGNIFICANT WEATHER AND/OR OBSTRUCTIONS TO VISIBILITY.


SDZ001>005-009-010-012>017-251300-
NORTHWEST AND NORTH CENTRAL SOUTH DAKOTA

CITY           SKY/WX    TMP DP  RH WIND       PRES   REMARKS
BUFFALO          N/A     71  61  70 N15       29.86R
FAITH            N/A     69  64  84 NE10      29.86S
MOBRIDGE       CLOUDY    68  66  93 N7        29.84R
$$

SDZ012>016-024>037-041>051-057-063-072>074-251300-
SOUTHWEST AND SOUTH CENTRAL SOUTH DAKOTA

CITY           SKY/WX    TMP DP  RH WIND       PRES   REMARKS
RAPID CTY ARPT PTCLDY    68  61  78 N9        29.91R
PIERRE         CLEAR     65  61  87 CALM      29.81R
CUSTER         CLEAR     61  43  51 NW3       30.05R
ELLSWORTH AFB  CLOUDY    70  64  81 N10       29.91R
PHILIP         CLEAR     69  62  78 N14       29.85R
PINE RIDGE     CLEAR     67  60  78 CALM      29.89R
SPEARFISH      FAIR      66  55  68 NW5       29.98R
WINNER         FAIR      77  61  57 SW20      29.83R
$$

SDZ004>011-016>023-039-040-251300-
NORTHEAST SOUTH DAKOTA

CITY           SKY/WX    TMP DP  RH WIND       PRES   REMARKS
ABERDEEN       CLEAR     68  65  90 CALM      29.84R
WATERTOWN      CLEAR     67  65  93 S12       29.87R
BROOKINGS      CLEAR     68  65  90 S15       29.90S
SISSETON         N/A     66  65  96 SE7       29.85R
$$

SDZ017-020-022-023-036>040-048>070-251300-
SOUTHEAST SOUTH DAKOTA

CITY           SKY/WX    TMP DP  RH WIND       PRES   REMARKS
SIOUX FALLS    PTCLDY    71  67  87 S12       29.92R
HURON          CLEAR     71  68  90 MISG      29.82R
CHAMBERLAIN    CLEAR     74  66  76 S5        29.83R
MITCHELL       CLEAR     73  69  87 SE10      29.84S
YANKTON        CLEAR     78  69  73 S9        29.90R
$$

ABBREVIATIONS USED IN REMARKS
   TC - TEMPERATURE IN CELSIUS
  WCI - WIND CHILL INDEX
   HX - HEAT INDEX
  VSB - VISIBILITY





USA.gov is the U.S. government's official web portal to all federal, state and local government web resources and services.